Regional Weather Roundup
Issued by NWS

Current Version | Previous Version | Text Only | Print | Product List | Glossary On
Versions: 1 2 3 4 5 6 7 8 9 10 11 12 13 14 15 16 17 18 19 20 21 22 23 24 25 26 27 28 29 30 31 32 33 34 35 36 37 38 39 40 41 42 43 44 45 46 47 48 49 50
000
ASUS43 KLOT 161312
RWRIL

ILLINOIS REGIONAL WEATHER ROUNDUP
NATIONAL WEATHER SERVICE CHICAGO/ROMEOVILLE IL
700 AM CST MON JAN 16 2017

NOTE: "FAIR" INDICATES FEW OR NO CLOUDS BELOW 12,000 FEET WITH NO
SIGNIFICANT WEATHER AND/OR OBSTRUCTIONS TO VISIBILITY.

* THESE STATIONS ARE NOT UNDER NWS QUALITY CONTROL. THEY ALSO MAY NOT
  REPORT WEATHER SUCH AS PRECIPITATION OR FOG.

ILZ001-002-007-009-015-016-024-161400-
NORTHWEST ILLINOIS

CITY           SKY/WX    TMP DP  RH WIND       PRES   REMARKS
MOLINE         CLOUDY    33  30  88 E10       30.19F FOG     WCI  25
STERLING*      MIX PCPN  32  31  96 E9        30.22F FOG     WCI  24
SAVANNA*       DRIZZLE   32  30  94 E9        30.21F WCI  24
$$

ILZ003-004-008-010-011-017-018-161400-
NORTH CENTRAL ILLINOIS

CITY           SKY/WX    TMP DP  RH WIND       PRES   REMARKS
ROCKFORD       FRZ RAIN  32  27  81 NE7       30.26F WCI  26
FREEPORT*      MIX PCPN  31  28  91 E9        30.25F WCI  22
ROCHELLE*      LGT RAIN  32  30  94 E7        30.24F WCI  25
DE KALB*       MIX PCPN  32  31  94 CALM      30.25R
$$

ILZ005-006-012>014-019>023-161400-
NORTHEAST ILLINOIS

CITY           SKY/WX    TMP DP  RH WIND       PRES   REMARKS
CHICAGO-OHARE  FRZ RAIN  32  29  88 NE6       30.26R WCI  26
CHICAGO-MIDWAY LGT RAIN  34  28  79 NE8       30.25F FOG     WCI  27
AURORA         LGT RAIN  33  30  88 NE5       30.25F FOG     WCI  29
LANSING*       LGT RAIN  32  31  97 NE5       30.25F WCI  28
JOLIET*        DRZL/FOG  34  33  96 CALM      30.26S VSB 1
WAUKEGAN       FRZ RAIN  31  30  96 E6        30.25F FOG     WCI  25
DUPAGE AIRPORT MIX PCPN  32  28  85 NE5       30.24S FOG     WCI  27
KANKAKEE*      CLOUDY    32  32  99 CALM      30.25S FOG
WHEELING       FRZ RAIN  32  29  88 NE3       30.28R FOG
MORRIS*        MIX PCPN  32  31  96 CALM      30.25R VSB 1
ROMEOVILLE*    DRIZZLE   32  32 100 E3        30.25S
NORTHERLY ISL    N/A     32  29  89 NE3         N/A
$$

LMZ740>746-161400-
SOUTHERN LAKE MICHIGAN

STATION/POSITION SKY/WX   TEMP    WIND        PRES    VSBY  WAVE
                          AIR SEA DIR/SP/G                  HT/PER
                          (F)     (DEG/KT/KT) (MB)    (MI)  (FT/S)
HARRISON CRIB              34     100/  6/  7   N/A
BURNHAM HARBOR             32      40/  2/  8   N/A
CALUMET HARBOR             32      30/  5/  7 1024.2R
BURNS HARBOR               32      80/  7/  9 1025.1F
MICHIGAN CITY              32      50/  5/  6   N/A
$$

ILZ025>027-034>036-040-047-049-050-058-095>099-161400-
WEST-CENTRAL ILLINOIS

CITY           SKY/WX    TMP DP  RH WIND       PRES   REMARKS
QUINCY         LGT RAIN  33  33 100 E10       30.10F VSB 1/2 WCI  25
GALESBURG*     MIX PCPN  32  32 100 E7        30.18S WCI  26
MACOMB*        FOG       32  32 100 E9        30.18F VSB 1/4 WCI  25
JACKSONVILLE*  LGT RAIN  34  33  99 E10       30.15S VSB 3/4 WCI  26
PITTSFIELD*    FOG       34  34 100 E6        30.13F VSB 1/4 WCI  29
$$

ILZ028>032-037-038-041>044-048-051>054-059>061-161400-
CENTRAL ILLINOIS

CITY           SKY/WX    TMP DP  RH WIND       PRES   REMARKS
PONTIAC        CLOUDY    33  33 100 E8        30.23F FOG     WCI  27
BLOOMINGTON    FOG       33  33 100 E9        30.21R VSB 1/2 WCI  25
DECATUR        FOG       34  34 100 E7        30.19F VSB 1/4 WCI  28
PEORIA         FOG       34  34 100 E8        30.20S VSB 1/2 WCI  27
LACON*         RAIN      32  32 100 E5        30.21F WCI  27
LINCOLN*       FOG       35  35 100 E8        30.19F VSB 3/4 WCI  28
SPRINGFIELD    FOG       36  35  96 E7        30.18S VSB 1/2 WCI  30
TAYLORVILLE    FOG       35  35  99 E7        30.18S VSB 3/4 WCI  29
$$

ILZ033-039-045-046-055>057-062-063-161400-
EAST-CENTRAL ILLINOIS

CITY           SKY/WX    TMP DP  RH WIND       PRES   REMARKS
CHAMPAIGN      CLOUDY    35  33  92 E7        30.21S FOG     WCI  29
RANTOUL*       CLOUDY    35  35  99 E6        30.22R FOG     WCI  30
MATTOON        FOG       37  36  96 SE9       30.19F VSB 1/2 WCI  30
PARIS*         CLOUDY    36  36 100 E6        30.23S FOG     WCI  31
$$

ILZ079-100>102-161400-
SOUTHWEST ILLINOIS

CITY           SKY/WX    TMP DP  RH WIND       PRES   REMARKS
ALTON          FOG       37  37 100 E7        30.14F VSB 1   WCI  32
BELLEVILLE     CLOUDY    40  40 100 E5        30.13F FOG
CAHOKIA*       CLOUDY    41  39  93 SE6       30.13F FOG
SPARTA*        FOG       41  41  99 SE9       30.15F VSB 1/2
$$

ILZ064>066-069>071-074>076-080>082-084>086-088>090-092>094-161400-
SOUTH-CENTRAL ILLINOIS

CITY           SKY/WX    TMP DP  RH WIND       PRES   REMARKS
CARBONDALE     FOG       42  42 100 E6        30.16S VSB 1/4
CAIRO*         FOG       43  43 100 NE5       30.15F VSB 1/2
EFFINGHAM*     FOG       39  39 100 E7        30.21F VSB 1   WCI  34
MARION         FOG       45  43  93 E7        30.18R VSB 1/2
MT. VERNON     FOG       41  41 100 E8        30.18F VSB 3/4
CENTRALIA*     CLOUDY    42  42 100 E7        30.17S FOG
SALEM*         CLOUDY    41  40  96 E6        30.18S FOG
METROPOLIS*    FOG       45  44  99 CALM      30.17S VSB 1/4
$$

ILZ067-068-072-073-078-083-087-091-161400-
SOUTHEAST ILLINOIS

CITY           SKY/WX    TMP DP  RH WIND       PRES   REMARKS
LAWRENCEVILLE  CLOUDY    41  40  96 E8        30.23S FOG
FLORA*         CLOUDY    41  40  98 E6        30.21S FOG
FAIRFIELD*     FOG       41  41 100 E3        30.19F VSB 1
HARRISBURG*    FOG       42  42 100 E7        30.19S VSB 3/4
ROBINSON*      CLOUDY    39  38  99 SE6       30.24S FOG     WCI  34
CARMI*         CLOUDY    42  42 100 E7        30.20S FOG
$$

ABBREVIATIONS USED IN REMARKS
   TC - TEMPERATURE IN CELSIUS
  WCI - WIND CHILL INDEX
   HX - HEAT INDEX
  VSB - VISIBILITY
$$





USA.gov is the U.S. government's official web portal to all federal, state and local government web resources and services.